sat.trackr.live / text

‹ back to catalog

STARLINK-11367 [DTC]

NORAD 62097 · 2024-220K

PAYLOAD ACTIVE UNKNOWN

§ Identity

Operator
Country
US
Launch date
2024-11-25
Launch site
AFETR
Launch vehicle
Mass (kg)
RCS (m²)

Purposes: comms

External: N2YO · Heavens-Above · Gunter

§ Orbital elements

Epoch: 2026-09-21T03:02:01.631328Z

Period
91.67 min
Inclination
42.9988°
Eccentricity
0.0001270
Mean motion
15.70871351 rev/d
Perigee alt
355.6 km
Apogee alt
357.3 km
Semi-major
6,734.5 km
B*
9.8813e-4
RAAN
304.7449°
Arg perigee
211.7290°
Mean anomaly
148.3501°
Rev number
10,579

§ Raw data

STARLINK-11367 [DTC]1 62097U 24220K   26264.12640777  .00128488  00000+0  98813-3 0  99902 62097  42.9988 304.7449 0001270 211.7290 148.3501 15.70871351105791

JSON: /api/v1/satellites/62097 · /tle

For live sub-satellite position, see the globe view (requires WebGL).

§ Visibility from observer

Set your observer location to see the next 7 days of passes ≥ 10°. The values pass through the URL so the page stays shareable.

No JS? Fill the form by hand. The geolocation button needs JavaScript.